EW1760 Weather Reports


time (UTC)temp
F
wind
direction
speed
knots
gust
knots
rain 1hr
in
rain 24hr
in
rain mn
in
humidity
%
barometer
mb
20260507101026 58 32 3.5 9.6 0.00 0.05 0.01 85 1010.8
20260507100524 58 344 3.5 9.6 0.00 0.05 0.01 85 1010.9
20260507100033 58 351 3.5 11.3 0.00 0.05 0.01 85 1011.0
20260507095527 59 360 3.5 11.3 0.00 0.05 0.01 86 1011.1
20260507095022 59 16 4.3 9.6 0.00 0.05 0.01 85 1010.5
20260507094522 59 337 2.6 9.6 0.00 0.05 0.01 86 1010.4
20260507094020 59 310 3.5 8.7 0.00 0.05 0.01 86 1010.6
20260507093520 59 360 3.5 8.7 0.00 0.05 0.01 86 1010.5
20260507093020 59 35 3.5 7.8 0.00 0.05 0.01 85 1010.4
20260507092521 59 5 4.3 7.8 0.00 0.05 0.01 86 1010.4
20260507092018 59 11 1.7 10.4 0.00 0.05 0.01 85 1010.3
20260507091518 59 34 5.2 12.2 0.00 0.05 0.01 84 1010.4
20260507091018 59 17 4.3 12.2 0.00 0.05 0.01 84 1010.3
20260507090518 59 332 5.2 11.3 0.00 0.05 0.01 84 1010.3
20260507090022 60 324 7.0 11.3 0.00 0.05 0.01 85 1010.5
20260507085516 60 360 5.2 10.4 0.00 0.05 0.01 85 1010.3
20260507085015 60 360 5.2 10.4 0.00 0.05 0.01 85 1010.0
20260507084516 60 313 3.5 10.4 0.00 0.05 0.01 85 1010.1
20260507084015 60 323 5.2 13.0 0.00 0.05 0.01 85 1010.3
20260507083516 60 360 4.3 13.0 0.00 0.05 0.01 86 1010.2
20260507083014 60 350 7.0 12.2 0.00 0.05 0.01 87 1010.2
20260507082515 60 348 6.1 11.3 0.00 0.05 0.01 88 1010.0
20260507082013 60 355 4.3 7.8 0.00 0.05 0.01 87 1009.8
20260507081527 60 5 2.6 7.8 0.00 0.05 0.01 87 1009.7
20260507081012 60 346 3.5 7.8 0.00 0.05 0.01 88 1009.5
20260507080512 60 321 1.7 7.0 0.00 0.05 0.01 89 1009.4
20260507080011 60 5 0.9 9.6 0.00 0.05 0.01 90 1009.4
20260507075514 60 29 1.7 9.6 0.00 0.05 0.01 90 1009.3
20260507075010 60 313 3.5 12.2 0.00 0.05 0.01 90 1009.6
20260507074522 61 320 4.3 17.4 0.00 0.05 0.01 91 1009.8
20260507074008 61 339 11.3 17.4 0.00 0.05 0.01 91 1010.3
20260507073507 61 332 11.3 17.4 0.00 0.05 0.01 91 1009.9
20260507073006 61 346 13.0 17.4 0.00 0.05 0.01 91 1009.7
20260507072504 61 336 13.0 17.4 0.00 0.05 0.01 91 1009.7
20260507072003 62 345 12.2 16.5 0.00 0.05 0.01 91 1009.5
20260507071504 62 332 11.3 16.5 0.00 0.05 0.01 91 1009.6
20260507071002 62 348 12.2 16.5 0.00 0.05 0.01 91 1009.3
20260507070600 62 332 11.3 15.6 0.00 0.05 0.01 92 1009.3
20260507070058 62 340 8.7 13.0 0.00 0.05 0.01 92 1009.0
20260507065557 62 355 5.2 10.4 0.00 0.05 0.01 92 1009.0
20260507065057 63 355 5.2 10.4 0.00 0.05 0.01 91 1008.7
20260507064556 63 351 2.6 10.4 0.00 0.05 0.01 91 1008.4
20260507064055 63 355 4.3 10.4 0.00 0.05 0.01 91 1008.4
20260507063554 63 360 2.6 6.1 0.00 0.05 0.01 91 1008.1
20260507063056 63 28 1.7 6.1 0.00 0.05 0.01 91 1007.9
20260507062554 63 355 2.6 7.8 0.00 0.05 0.01 90 1008.0
20260507062052 64 350 4.3 7.8 0.00 0.05 0.01 91 1008.1
20260507061551 64 42 3.5 7.8 0.00 0.05 0.01 91 1008.1
20260507061050 64 10 4.3 7.8 0.01 0.05 0.01 91 1008.3
20260507060548 64 355 3.5 7.0 0.01 0.05 0.01 91 1008.3
20260507060048 65 350 1.7 7.8 0.01 0.05 0.01 92 1008.5
20260507055547 65 346 2.6 7.8 0.01 0.05 0.01 91 1008.6
20260507055049 65 355 2.6 9.6 0.01 0.05 0.01 91 1008.5
20260507054611 66 49 3.5 9.6 0.01 0.05 0.01 91 1008.5
20260507054043 66 336 6.1 8.7 0.01 0.05 0.01 92 1008.7
20260507053545 66 345 5.2 7.8 0.01 0.05 0.01 92 1008.8
20260507053049 66 5 3.5 5.2 0.01 0.05 0.01 92 1008.6
20260507052542 66 340 2.6 4.3 0.01 0.05 0.01 92 1008.8
20260507052041 66 355 1.7 3.5 0.01 0.05 0.01 92 1008.8
20260507051541 66 355 0.9 1.7 0.01 0.05 0.01 92 1008.8
20260507051043 66 355 0.9 1.7 0.00 0.04 0.00 91 1008.8
20260507050540 66 355 0.0 1.7 0.00 0.04 0.00 91 1009.0
20260507050041 66 355 0.0 1.7 0.00 0.04 0.00 91 1008.9
20260507045539 66 355 0.0 4.3 0.00 0.04 0.00 91 1008.8
20260507045038 66 355 1.7 4.3 0.00 0.04 0.00 91 1008.8
20260507044546 66 348 1.7 3.5 0.00 0.04 0.00 90 1008.9
20260507044040 66 360 0.0 1.7 0.00 0.04 0.00 90 1008.8
20260507043537 66 360 0.0 0.9 0.00 0.04 0.00 90 1008.8
20260507043041 66 360 0.0 0.0 0.00 0.04 0.00 90 1008.8
20260507042540 66 360 0.0 0.0 0.00 0.04 0.00 90 1008.8
20260507042036 66 360 0.0 0.9 0.00 0.04 0.00 90 1008.7
20260507041540 66 360 0.0 0.9 0.00 0.04 0.00 90 1008.8
20260507041035 66 360 0.0 0.9 0.00 0.04 0.00 90 1008.8
20260507040535 66 360 0.0 1.7 0.00 0.04 0.00 90 1008.8
20260507040036 66 360 0.0 1.7 0.00 0.04 0.04 90 1008.7
20260507035534 67 360 0.0 1.7 0.00 0.04 0.04 90 1008.7
20260507035034 67 360 0.0 3.5 0.00 0.04 0.04 90 1008.8
20260507034533 67 360 0.0 3.5 0.00 0.04 0.04 89 1008.9
20260507034033 67 355 2.6 4.3 0.00 0.04 0.04 89 1009.1
20260507033533 67 351 2.6 4.3 0.00 0.04 0.04 89 1009.0
20260507033034 67 319 1.7 3.5 0.00 0.04 0.04 89 1009.1
20260507032532 67 148 0.0 2.6 0.00 0.04 0.04 88 1008.9
20260507032032 67 148 0.9 2.6 0.00 0.04 0.04 88 1008.5
20260507031532 67 148 1.7 2.6 0.00 0.04 0.04 87 1008.5
20260507031032 68 146 1.7 2.6 0.00 0.04 0.04 87 1008.2
20260507030532 68 146 1.7 3.5 0.00 0.04 0.04 86 1008.3
20260507030037 68 126 1.7 3.5 0.00 0.04 0.04 86 1008.2
20260507025531 68 131 1.7 3.5 0.00 0.04 0.04 86 1008.2
20260507025032 68 121 1.7 3.5 0.00 0.04 0.04 86 1008.0
20260507024536 68 173 0.0 1.7 0.00 0.04 0.04 86 1008.2
20260507024031 68 173 0.0 1.7 0.00 0.04 0.04 86 1008.3
20260507023533 67 173 0.0 1.7 0.00 0.04 0.04 87 1008.3
20260507023033 67 191 0.0 0.9 0.00 0.04 0.04 87 1008.3
20260507022535 67 221 0.0 0.9 0.00 0.04 0.04 87 1008.5
20260507022032 67 221 0.0 0.9 0.00 0.04 0.04 87 1008.6
20260507021531 67 231 0.0 1.7 0.00 0.04 0.04 87 1008.7
20260507021030 67 231 0.0 2.6 0.00 0.04 0.04 87 1008.9
20260507020530 67 231 0.9 2.6 0.00 0.04 0.04 87 1009.0
20260507020031 67 188 0.0 0.9 0.00 0.04 0.04 87 1009.0
20260507015532 68 188 0.0 1.7 0.00 0.04 0.04 86 1008.9
20260507015030 68 188 0.0 1.7 0.00 0.04 0.04 86 1008.9
20260507014543 68 215 0.0 1.7 0.00 0.04 0.04 86 1008.9
20260507014030 68 212 0.0 1.7 0.00 0.04 0.04 85 1008.8
20260507013529 68 180 0.0 0.9 0.00 0.04 0.04 85 1008.7
20260507013029 68 180 0.0 0.9 0.00 0.04 0.04 85 1008.6
20260507012529 68 180 0.0 1.7 0.00 0.04 0.04 85 1008.5
20260507012031 68 180 0.9 2.6 0.00 0.04 0.04 85 1008.6
20260507011532 68 155 0.9 3.5 0.00 0.04 0.04 86 1008.5
20260507011030 68 148 0.9 4.3 0.00 0.04 0.04 86 1008.4
20260507010528 68 200 2.6 4.3 0.00 0.04 0.04 86 1008.7
20260507010032 68 197 1.7 4.3 0.00 0.04 0.04 86 1008.7
20260507005527 68 213 0.9 2.6 0.00 0.04 0.04 86 1008.7
20260507005029 68 182 1.7 2.6 0.00 0.04 0.04 86 1008.6
20260507004528 68 192 1.7 3.5 0.00 0.04 0.04 86 1008.6
20260507004027 68 199 1.7 3.5 0.00 0.04 0.04 86 1008.6
20260507003526 68 168 0.9 2.6 0.00 0.04 0.04 87 1008.6
20260507003027 68 171 0.9 1.7 0.00 0.04 0.04 87 1008.6
20260507002527 68 158 0.9 2.6 0.00 0.04 0.04 88 1008.6
20260507002026 68 173 0.9 2.6 0.00 0.04 0.04 88 1008.5
20260507001528 68 194 0.9 2.6 0.00 0.04 0.04 87 1008.6
20260507001026 68 179 0.9 4.3 0.00 0.04 0.04 87 1008.5
20260507000526 68 173 1.7 4.3 0.00 0.04 0.04 87 1008.4
20260507000035 68 179 1.7 3.5 0.00 0.04 0.04 87 1008.3
20260506235526 68 182 2.6 4.3 0.00 0.04 0.04 87 1008.1
20260506235026 68 184 2.6 4.3 0.00 0.04 0.04 87 1008.1
20260506234526 68 166 1.7 5.2 0.00 0.04 0.04 87 1008.2
20260506234025 68 189 3.5 5.2 0.00 0.04 0.04 87 1008.2
20260506233526 68 182 1.7 7.0 0.00 0.04 0.04 87 1008.2
20260506233026 68 211 3.5 7.0 0.00 0.04 0.04 87 1008.3
20260506232525 68 175 1.7 3.5 0.00 0.04 0.04 87 1008.2
20260506232024 68 177 1.7 3.5 0.00 0.04 0.04 87 1008.1
20260506231524 68 217 0.9 4.3 0.00 0.04 0.04 86 1008.2
20260506231024 68 225 2.6 6.1 0.00 0.04 0.04 86 1008.2
20260506230524 69 205 2.6 7.0 0.00 0.04 0.04 86 1008.1
20260506230027 69 200 4.3 7.0 0.00 0.04 0.04 86 1008.1
20260506225527 69 201 5.2 7.0 0.00 0.04 0.04 85 1008.0
20260506225024 69 186 5.2 7.8 0.00 0.04 0.04 85 1008.0
20260506224526 69 197 5.2 9.6 0.00 0.04 0.04 85 1008.1
20260506224027 69 184 6.1 10.4 0.00 0.04 0.04 84 1008.0
20260506223523 69 191 7.0 13.9 0.00 0.04 0.04 84 1007.9
20260506223023 69 200 9.6 13.9 0.00 0.04 0.04 84 1007.9
20260506222523 69 206 7.8 12.2 0.00 0.04 0.04 85 1007.9
20260506222025 69 202 7.0 15.6 0.00 0.04 0.04 84 1007.9
20260506221522 69 206 9.6 15.6 0.00 0.04 0.04 84 1007.9
20260506221026 69 205 8.7 13.0 0.00 0.04 0.04 85 1007.8
20260506220521 69 202 8.7 13.0 0.00 0.04 0.04 85 1008.0
20260506220024 69 201 8.7 11.3 0.00 0.04 0.04 85 1008.1
20260506215525 69 193 7.8 11.3 0.00 0.04 0.04 85 1008.1
20260506215025 68 209 7.0 10.4 0.00 0.04 0.04 86 1008.2
20260506214521 68 200 6.1 10.4 0.00 0.04 0.04 85 1008.3
20260506214019 68 208 6.1 10.4 0.00 0.04 0.04 85 1008.3
20260506213520 68 214 6.1 10.4 0.00 0.04 0.04 86 1008.4
20260506213020 68 225 6.1 10.4 0.00 0.04 0.04 86 1008.4
20260506212520 68 217 6.1 10.4 0.00 0.04 0.04 86 1008.4
20260506212019 68 214 6.1 10.4 0.00 0.04 0.04 86 1008.3
20260506211520 68 217 6.1 10.4 0.00 0.04 0.04 86 1008.4
20260506211018 68 215 6.1 8.7 0.00 0.04 0.04 86 1008.3
20260506210520 67 216 6.1 9.6 0.00 0.04 0.04 86 1008.3
20260506210017 67 199 7.0 10.4 0.00 0.04 0.04 86 1008.2
20260506205519 67 206 6.1 10.4 0.00 0.04 0.04 86 1008.1
20260506205017 67 211 6.1 10.4 0.00 0.04 0.04 86 1008.2
20260506204523 67 221 7.0 10.4 0.00 0.04 0.04 86 1008.1
20260506204015 67 202 6.1 10.4 0.00 0.04 0.04 86 1008.3
20260506203518 68 207 7.0 10.4 0.00 0.04 0.04 85 1008.2
20260506203017 67 201 7.0 11.3 0.00 0.04 0.04 86 1008.2
20260506202515 67 201 7.0 10.4 0.00 0.04 0.04 86 1008.2
20260506202014 67 186 6.1 12.2 0.00 0.04 0.04 86 1008.1
20260506201516 67 219 7.0 12.2 0.00 0.04 0.04 85 1008.2
20260506201013 67 211 7.0 12.2 0.00 0.04 0.04 85 1008.3
20260506200517 67 217 7.8 11.3 0.00 0.04 0.04 86 1008.2
20260506200013 67 196 7.0 10.4 0.00 0.04 0.04 86 1008.4
20260506195512 67 223 7.0 9.6 0.00 0.04 0.04 86 1008.3
20260506195013 67 207 7.8 11.3 0.00 0.04 0.04 86 1008.4
20260506194516 67 226 6.1 11.3 0.00 0.04 0.04 86 1008.9
20260506194011 67 214 7.8 12.2 0.00 0.04 0.04 86 1008.9
20260506193511 67 211 7.8 12.2 0.00 0.04 0.04 86 1008.7
20260506193010 67 205 6.1 11.3 0.00 0.04 0.04 86 1008.8
20260506192514 67 219 7.8 12.2 0.00 0.04 0.04 86 1008.9
20260506192012 67 209 9.6 12.2 0.00 0.04 0.04 86 1008.8
20260506191509 67 216 6.1 11.3 0.00 0.04 0.04 86 1008.9
20260506191009 67 198 6.1 11.3 0.00 0.04 0.04 86 1009.0
20260506190508 67 223 7.0 12.2 0.00 0.04 0.04 86 1009.1
20260506190008 67 219 7.8 12.2 0.00 0.04 0.04 86 1009.3
20260506185507 67 211 7.8 12.2 0.00 0.04 0.04 86 1009.1
20260506185008 67 211 7.0 14.8 0.00 0.04 0.04 86 1009.2
20260506184507 67 204 7.8 14.8 0.00 0.04 0.04 86 1009.3
20260506184006 67 207 6.1 10.4 0.00 0.04 0.04 86 1009.3
20260506183508 67 223 7.0 10.4 0.00 0.04 0.04 86 1009.5
20260506183006 67 213 7.0 13.9 0.00 0.04 0.04 86 1009.6
20260506182505 67 212 9.6 13.9 0.00 0.04 0.04 86 1009.7
20260506182004 67 209 7.0 13.0 0.00 0.04 0.04 86 1009.6
20260506181504 66 200 7.8 13.0 0.00 0.04 0.04 86 1009.6
20260506181005 67 205 7.8 13.0 0.00 0.04 0.04 86 1009.4
20260506180506 67 194 8.7 14.8 0.00 0.04 0.04 86 1009.4
20260506180002 66 199 10.4 14.8 0.00 0.04 0.04 86 1009.6
20260506175502 66 211 7.8 10.4 0.00 0.04 0.04 86 1009.7
20260506175000 66 192 7.8 10.4 0.00 0.04 0.04 86 1009.8
20260506174602 66 200 7.0 11.3 0.00 0.04 0.04 87 1009.8
20260506174102 66 189 7.0 11.3 0.00 0.04 0.04 87 1009.9
20260506173601 66 201 7.8 12.2 0.00 0.04 0.04 87 1010.0
20260506173106 65 204 8.7 12.2 0.00 0.04 0.04 87 1009.9
20260506172559 65 196 7.8 11.3 0.00 0.04 0.04 88 1010.0
20260506172058 65 192 8.7 12.2 0.00 0.04 0.04 88 1009.9
20260506171603 65 198 8.7 13.9 0.00 0.04 0.04 87 1009.9
20260506171058 65 194 11.3 13.9 0.00 0.04 0.04 87 1009.9
20260506170557 65 195 11.3 13.9 0.00 0.04 0.04 88 1009.9
20260506170106 65 181 8.7 13.9 0.00 0.04 0.04 88 1010.1
20260506165558 65 190 8.7 13.0 0.00 0.04 0.04 88 1010.0
20260506165056 64 195 8.7 13.0 0.00 0.04 0.04 88 1010.2
20260506164606 64 216 8.7 12.2 0.01 0.04 0.04 88 1010.4
20260506164058 64 201 8.7 13.9 0.01 0.04 0.04 89 1010.5
20260506163559 64 190 10.4 15.6 0.01 0.04 0.04 89 1010.3
20260506163116 64 184 10.4 16.5 0.02 0.04 0.04 89 1010.3
20260506162555 64 182 11.3 16.5 0.02 0.04 0.04 89 1010.2
20260506162054 64 190 10.4 13.9 0.02 0.04 0.04 89 1010.3
20260506161601 64 168 10.4 14.8 0.02 0.04 0.04 89 1010.4
20260506161053 64 171 11.3 14.8 0.02 0.04 0.04 89 1010.5
20260506160553 64 184 10.4 13.9 0.03 0.04 0.04 88 1010.6
20260506160052 64 182 11.3 15.6 0.03 0.04 0.04 88 1010.7
20260506155556 64 189 11.3 15.6 0.03 0.04 0.04 87 1010.6
20260506155050 64 190 10.4 15.6 0.03 0.04 0.04 87 1010.7
20260506154608 65 186 10.4 15.6 0.02 0.03 0.03 87 1010.9
20260506154050 65 192 9.6 15.6 0.02 0.03 0.03 87 1010.9
20260506153550 65 187 10.4 15.6 0.02 0.03 0.03 86 1010.9
20260506153057 65 186 13.0 16.5 0.01 0.02 0.02 85 1011.0
20260506152548 65 198 12.2 16.5 0.01 0.02 0.02 85 1011.0
20260506152047 65 193 12.2 15.6 0.01 0.02 0.02 84 1011.2
20260506151548 65 187 11.3 17.4 0.01 0.02 0.02 84 1011.2
20260506151046 66 192 12.2 17.4 0.01 0.02 0.02 83 1011.3
20260506150546 66 191 13.0 16.5 0.01 0.01 0.01 82 1011.2
20260506150046 66 199 13.0 14.8 0.01 0.01 0.01 82 1011.3
20260506145546 66 188 12.2 15.6 0.01 0.01 0.01 81 1011.3
20260506145045 67 194 10.4 15.6 0.01 0.01 0.01 81 1011.4
20260506144546 67 198 8.7 15.6 0.01 0.01 0.01 81 1011.2
20260506144045 67 193 10.4 15.6 0.01 0.01 0.01 80 1011.1
20260506143546 66 184 10.4 15.6 0.01 0.01 0.01 80 1011.0
20260506143100 67 185 8.7 12.2 0.01 0.01 0.01 80 1011.0
20260506142545 66 205 6.1 12.2 0.01 0.01 0.01 81 1011.1
20260506142044 66 178 7.8 12.2 0.01 0.01 0.01 81 1011.0
20260506141545 66 176 6.1 13.0 0.01 0.01 0.01 82 1011.0
20260506141048 66 197 7.0 13.0 0.01 0.01 0.01 81 1011.0
20260506140544 66 165 6.1 12.2 0.00 0.00 0.00 82 1011.0
20260506140045 66 198 6.1 12.2 0.00 0.00 0.00 81 1011.1
20260506135544 67 202 9.6 13.0 0.00 0.00 0.00 80 1011.2
20260506135045 67 186 8.7 13.0 0.00 0.00 0.00 79 1010.9
20260506134543 67 179 7.8 13.0 0.00 0.00 0.00 79 1011.0
20260506134044 67 191 9.6 12.2 0.00 0.00 0.00 79 1011.3
20260506133544 66 195 9.6 12.2 0.00 0.00 0.00 80 1011.2
20260506133043 66 196 7.8 13.0 0.00 0.00 0.00 80 1011.2
20260506132542 66 192 8.7 13.9 0.00 0.00 0.00 80 1011.2
20260506132042 66 192 11.3 13.9 0.00 0.00 0.00 79 1011.1
20260506131542 66 179 8.7 13.0 0.00 0.00 0.00 80 1011.0
20260506131042 66 190 7.8 13.0 0.00 0.00 0.00 81 1011.0
20260506130542 66 178 8.7 13.0 0.00 0.00 0.00 80 1010.9
20260506130041 66 190 7.8 14.8 0.00 0.00 0.00 80 1010.9
20260506125546 66 184 11.3 14.8 0.00 0.00 0.00 80 1010.9
20260506125045 66 190 7.8 13.0 0.00 0.00 0.00 81 1010.9
20260506124541 66 182 7.8 13.9 0.00 0.00 0.00 81 1010.9
20260506124041 66 186 7.8 13.9 0.00 0.00 0.00 81 1011.0
20260506123541 66 181 7.8 13.0 0.00 0.00 0.00 81 1010.9
20260506123041 66 188 8.7 13.0 0.00 0.00 0.00 81 1010.9
20260506122541 66 182 9.6 14.8 0.00 0.00 0.00 79 1010.9
20260506122040 66 176 11.3 14.8 0.00 0.00 0.00 79 1010.9
20260506121543 66 173 10.4 14.8 0.00 0.00 0.00 80 1011.0
20260506121039 66 166 9.6 14.8 0.00 0.00 0.00 80 1011.0
20260506120539 66 183 10.4 14.8 0.00 0.00 0.00 79 1011.1
20260506120039 66 180 10.4 14.8 0.00 0.00 0.00 80 1011.2
20260506115539 66 184 9.6 13.9 0.00 0.00 0.00 80 1011.2
20260506115038 65 163 8.7 13.0 0.00 0.00 0.00 80 1011.2
20260506114549 65 177 8.7 13.0 0.00 0.00 0.00 80 1011.2
20260506114038 65 184 8.7 13.0 0.00 0.00 0.00 80 1011.2
20260506113541 65 177 10.4 13.0 0.00 0.00 0.00 80 1011.2
20260506113038 65 180 8.7 13.0 0.00 0.00 0.00 80 1011.1
20260506112538 65 181 7.8 10.4 0.00 0.00 0.00 81 1011.1
20260506112038 65 191 8.7 13.0 0.00 0.00 0.00 80 1011.2
20260506111539 65 192 8.7 13.0 0.00 0.00 0.00 80 1011.2
20260506111036 65 172 9.6 14.8 0.00 0.00 0.00 80 1011.0
20260506110536 65 194 10.4 14.8 0.00 0.00 0.00 79 1010.9
20260506110036 65 186 9.6 13.9 0.00 0.00 0.00 79 1011.0
20260506105535 65 199 10.4 13.9 0.00 0.00 0.00 79 1011.0
20260506105036 65 192 9.6 13.0 0.00 0.00 0.00 79 1010.9
20260506104538 65 186 9.6 13.0 0.00 0.00 0.00 80 1010.9
20260506104038 65 178 8.7 12.2 0.00 0.00 0.00 80 1011.0
20260506103536 65 178 8.7 13.0 0.00 0.00 0.00 79 1010.9
20260506103036 65 194 7.8 13.0 0.00 0.00 0.00 79 1010.8
20260506102536 65 182 9.6 13.0 0.00 0.00 0.00 79 1010.8
20260506102035 66 180 9.6 13.0 0.00 0.00 0.00 80 1010.7
20260506101535 65 158 8.7 13.0 0.00 0.00 0.00 79 1010.6